Weather in Tyubuk

Russia / Chelyabinsk Oblast     56°02′53″N   60°56′42″E
temp.,
°C
wind,
m/s
gust,
m/s
humid.,
%
clouds,
%
prec.,
mm/h
press.,
hPa
HPBL,
m
4 march, thu
thu423:00−8sw349184 0.0 99944
02:00−9sw349379 0.0 99869
05:00−9sw349290 0.0 99876
08:00−9sw4693100 0.0 997109
11:00−5w61085100 0.0 998807
14:00−5w71077100 0.1 9981239
17:00−5w4984100 0.1 999660
20:00−10sw459060 0.0 99971
5 march, fri
fri523:00−10s479076 0.0 998125
02:00−9s51288100 0.0 995298
05:00−7ssw61390100 0.3 993323
08:00−6wsw6177828 0.0 994639
11:00−3w8157245 0.0 996873
14:00−2wsw8147014 0.0 9981333
17:00−3wsw5117846 0.0 1000619
20:00−9wsw468463 0.0 100181
6 march, sat
sat623:00−11w498970 0.0 1004177
02:00−13w512880 0.0 1007283
05:00−15w511880 0.0 1010221
08:00−15w511900 0.0 1010241
11:00−9w712810 0.0 1010570
14:00−6w69784 0.0 1010985
17:00−7wsw488445 0.0 1009561
20:00−11sw348766 0.0 100946
7 march, sun
sun723:00−13wsw339061 0.0 101021
02:00−15nw1293100 0.0 100820
05:00−16nnw2393100 0.0 100824
08:00−18nw229654 0.0 100821
11:00−12nw248854 0.0 1008286
14:00−9wnw458096 0.1 1009978
17:00−10w478198 0.1 1009662
20:00−17wnw448845 0.0 101158
8 march, mon
mon823:00−19w349323 0.0 101331
02:00−21wsw23940 0.0 101320
05:00−22ssw34934 0.0 101330
08:00−21sse4892100 0.0 1011162
11:00−15s61195100 0.2 1008428
14:00−9ssw71188100 0.6 1006580
17:00−7ssw6129297 0.8 1005607
20:00−11sw5107933 0.1 1006153